Reflectivity
-20 -20 -20 -20 -20 -20 -20 -20 -20 -20 -20 -20 -20 -20 -20 -20 -20 -20 -20 -6 34 -20 -20 -20 -20 -20 -20 -20 -20 -20 -20 -20
-20 -20 -20 -20 -20 -20 -20 -20 -20 -20 -20 -20 -20 -20 -20 -20 -20 -20 -20 -20 -20 9 -20 -20 -20 -20 -20 -20 -20 -20 -20 -20
-20 -20 -20 -20 -20 -20 -20 -20 -20 -20 -20 -20 -20 -20 -20 -20 -20 -20 -20 -20 -20 -20 -10 -19 -20 -20 -20 -20 -20 -20 -20 -20
-20 -20 -20 -20 -20 -20 -20 -20 -20 -20 -20 -20 -20 -20 -20 -20 -20 -20 -20 -20 -20 -20 34 33 -8 -20 -20 -20 -20 -20 -20 -20
-20 -20 -20 -20 -20 -20 -20 -20 -20 -20 -20 -20 -20 -20 -20 -20 -20 -20 -20 -20 -20 -20 -20 34 9 -5 -20 -20 -20 -20 -20 -20
-20 -20 -20 -20 -20 -20 -20 -20 -20 -20 -20 -20 -20 -20 -20 -20 -20 -20 -20 -20 -20 -20 -20 -19 31 16 4 -20 -20 -20 -20 -20
-20 -20 -20 -20 -20 -20 -20 -20 -20 -20 -20 -20 -20 -16 -18 -18 -20 -20 -20 -20 -20 -20 -20 -0 19 48 30 -4 -20 -20 -20 -20
-20 -20 -20 -20 -20 -20 -20 -20 -20 -20 -20 -20 -19 -3 -8 9 13 -19 -20 -20 -20 -20 -20 -8 16 44 44 22 5 -20 -20 -20
-20 -20 -20 -20 -20 -20 -20 -20 -20 -20 -16 -15 -18 -11 13 16 3 11 -20 -20 -20 -20 18 2 -9 17 45 31 8 -7 -20 -20
-20 -20 -20 -20 -20 -20 -20 -20 -20 2 15 6 -4 6 14 16 13 14 17 -20 -16 -20 -20 -20 2 17 37 34 33 -3 -20 -20
-20 -20 -20 -20 -20 -20 -20 -20 -20 16 15 25 19 16 16 15 12 -8 22 -10 -20 -20 -20 -20 17 23 25 48 37 4 0 -20
-20 -20 -20 -20 -20 -20 -20 -20 -20 -19 4 24 25 7 18 14 11 -20 23 28 -20 -20 -20 -20 19 33 24 49 39 33 35 -10
-20 -20 -20 -20 -20 -20 -20 -20 -20 -20 -12 14 8 22 27 23 10 1 7 4 16 -20 1 -20 18 21 24 45 35 40 33 -1
-20 -20 -20 -20 -20 -20 -20 -20 -20 -20 -20 9 14 24 10 21 27 21 12 -19 -8 17 23 10 8 19 10 16 40 49 35 16
-20 -20 -20 -20 -20 -20 -20 -20 -20 -20 -20 -20 1 -6 14 18 36 31 38 24 8 5 -5 18 31 3 26 34 34 44 32 6
-20 -20 -20 -20 -20 -20 -20 -20 -20 -20 -20 -20 -20 -20 -20 -20 10 11 35 33 40 39 18 28 27 32 22 29 39 36 32 27
-20 -20 -20 -20 -20 -20 -20 -20 -20 -20 -20 -20 -20 -20 -19 -13 -20 2 6 13 22 27 16 10 -5 14 15 20 16 2 29 22
-20 -20 -20 -20 -20 -20 -20 -20 -20 -20 -20 -20 -20 -20 -20 -20 -20 -13 -20 -5 8 22 19 14 5 29 21 -6 10 26 30 1
-20 -20 -20 -20 -20 -20 -20 -20 -20 -20 -20 -20 -20 -20 -20 -20 -20 -9 9 -11 -6 -6 5 14 12 24 10 4 6 31 31 36
Wind_Speed
14 14 12 11 11 13 14 14 18 19 12 11 10 11 13 12 12 11 13 13 16 15 13 11 13 9 7 8 11 8 10 9
11 12 12 12 13 15 16 17 17 16 13 13 13 14 13 15 14 18 17 13 18 18 16 14 12 14 11 12 7 13 5 8
11 10 9 9 12 14 17 17 17 15 12 13 13 12 14 14 15 19 18 19 17 21 19 17 15 13 12 13 13 5 6 10
7 10 7 8 12 14 16 17 17 16 17 13 14 14 14 13 13 14 15 18 21 20 23 19 16 14 14 16 16 18 11 9
5 7 8 10 12 14 16 16 17 15 18 15 18 16 18 15 15 16 17 22 21 18 21 22 19 15 17 17 15 15 14 14
7 7 7 6 9 12 14 15 16 18 18 17 15 18 15 14 15 22 21 18 21 20 18 18 24 15 18 18 17 16 15 13
4 5 7 7 11 13 16 17 20 20 19 18 18 20 20 17 17 18 16 14 14 17 16 14 15 21 19 17 19 19 17 15
8 9 9 10 15 15 16 18 22 21 20 18 19 21 21 22 21 16 18 15 12 14 15 13 16 16 14 16 16 19 17 15
7 7 7 9 13 14 16 19 21 22 21 22 19 19 13 15 18 17 18 15 11 13 13 16 15 23 26 17 13 15 17 15
6 6 5 11 13 15 16 17 21 21 21 20 21 19 18 17 20 19 11 12 7 7 5 11 16 20 28 15 14 17 16 16
4 5 6 10 11 13 14 15 17 18 20 18 18 20 19 18 17 17 15 7 4 5 2 6 14 25 16 14 14 18 19 13
5 5 6 7 9 11 14 15 19 18 19 18 19 19 19 18 16 17 18 11 8 7 7 3 10 13 20 27 13 20 20 17
4 4 7 6 8 11 13 14 15 17 17 19 19 18 18 18 19 19 17 16 8 6 7 11 12 16 21 26 21 23 20 18
6 5 6 7 8 11 13 14 14 16 17 18 20 19 20 18 18 17 14 16 16 12 4 8 10 14 13 18 17 24 19 19
5 6 7 6 5 10 13 14 13 15 16 17 19 20 19 19 18 17 19 17 17 15 11 9 13 14 18 21 20 18 12 12
8 7 8 6 6 11 13 12 14 15 16 17 18 19 19 19 19 16 15 16 16 16 16 11 11 11 9 8 11 15 12 12
9 9 10 7 10 13 14 11 13 15 15 16 17 19 19 19 19 19 17 17 17 17 16 13 13 10 20 19 15 9 12 12
9 10 9 7 10 13 15 12 14 15 15 16 17 18 17 19 19 18 17 16 15 16 17 15 12 13 25 23 17 8 8 11
8 10 9 7 10 13 14 13 14 15 16 16 16 17 18 18 17 18 18 14 15 14 14 18 18 16 31 28 21 10 4 7
Wind_Direction
39 29 28 13 12 3 350 348 344 339 329 324 314 302 301 299 298 270 255 238 220 208 219 224 205 192 185 185 172 179 162 166
40 24 14 12 3 357 353 344 344 336 330 328 322 312 304 297 294 289 283 244 234 216 215 220 209 195 190 188 166 170 166 155
20 12 4 12 360 352 345 340 339 329 320 317 304 297 294 287 284 282 273 274 235 231 221 214 209 201 179 184 178 162 162 168
10 354 4 8 356 348 341 334 333 323 313 312 306 294 289 292 286 284 272 259 247 227 228 220 211 203 195 186 185 178 180 182
8 348 9 5 349 346 339 328 322 318 317 307 300 293 294 291 284 281 276 277 270 232 225 224 216 209 200 189 189 185 178 186
3 354 4 348 349 338 331 318 323 323 317 307 300 294 288 290 285 283 272 269 269 259 229 227 236 211 205 192 184 192 187 185
347 358 4 352 346 336 335 327 330 324 315 310 302 297 296 291 283 282 270 271 269 255 232 217 197 256 209 192 185 188 188 191
8 7 359 353 340 336 332 329 327 323 316 319 315 303 294 293 285 272 272 263 248 251 215 190 206 217 205 196 187 189 192 193
352 11 359 342 333 332 331 330 323 321 323 326 317 307 303 293 287 279 272 243 230 239 195 217 174 180 236 218 190 195 187 196
360 355 1 345 338 334 329 326 323 319 328 321 319 317 312 306 304 299 287 231 205 234 210 203 204 203 225 262 198 192 193 190
358 2 357 345 338 325 322 323 323 321 324 320 320 319 317 319 320 329 324 308 158 124 135 198 216 207 197 273 291 199 191 191
7 0 337 338 332 322 325 330 334 329 325 325 323 328 322 332 335 334 331 310 201 190 160 136 188 226 196 237 270 251 190 189
8 348 327 326 330 331 332 333 336 336 331 326 331 334 331 341 345 340 340 341 318 228 199 180 204 229 192 205 248 290 193 189
352 335 313 330 335 334 338 334 338 340 339 334 337 344 342 341 339 342 341 351 342 333 270 203 189 211 230 208 231 252 191 193
340 324 327 325 325 339 340 335 344 342 345 341 342 344 346 342 345 342 -0 352 353 335 305 213 207 197 212 215 219 239 186 190
356 344 340 326 345 347 341 338 349 345 348 345 348 343 348 348 350 353 359 2 355 344 334 96 66 63 37 9 319 218 194 189
355 354 348 351 3 350 342 351 353 347 351 351 350 347 353 350 351 355 2 7 0 359 13 26 61 42 3 18 330 264 201 187
359 356 343 7 4 352 341 353 354 350 351 355 356 350 355 355 353 350 0 11 8 359 3 23 18 34 16 3 338 310 209 187
4 355 345 13 6 354 340 356 357 352 354 356 1 356 357 357 358 357 352 360 9 4 9 7 12 14 7 1 345 358 254 180